Showing default

ALOS-4, 60182

Orbit data source: Space-Track

ALOS-4, 60182 is a payload satellite owned by JAXA (JP) in SSO that was launched on Mon, 01 Jul 2024 UTC via a H3-22S launch vehicle from the Tanegashima Space Center (TNSTA). Payload-class satellites include a variety of spacecraft equipped with specific instruments for various scientific and technological missions. These include communications satellites like Starlink; space stations such as the ISS; scientific satellites like the Hubble; Earth observation satellites from companies like Planet Labs, Umbra, and HawkEye 360; GPS; miniature CubeSats for education and research; and military/defense satellites.

Loading next visibility...
Identifier
60182, 2024-123A
Orbit
SSO
Country
Flag of JPJP / JPN
Related business
Manufacturer
MELCO
Mission
Operational Civil Imaging
Bus & Motor
ALOS, AOCS
Mass
2,900 kg wet, ~2,500 kg dry
Launch date (UTC)
2024-07-01 (1 year ago)
Launch vehicle
H3-22S
Launch site
Tanegashima Space Center (TNSTA)
Object type
Payload
Rocket body
Debris
Shape & HBR
Box + 2 Pan, 8.3 m
Radar Cross Section
36.926 m², Large (>1 m²)

Expand to show TLE details & history
Last TLE update: 13 hours ago

TLE from 13 hours ago
0 ALOS-4
1 60182U 24123A   25249.30341858  .00003135  00000-0  42647-3 0  9991
2 60182  97.9225 345.5427 0001425  94.2340 265.9035 14.79479133 63903
Epoch: 2025-09-06T07:16Z
TLE epoch observation values (Epoch: 2025-09-06T07:16:55.365Z)
Latitude
0.00004°
Longitude
-109.32717°
Altitude
634.06 km
Speed
7.541 km/s
True Right ascension
23h 02m 10s
True Declination
0° 00' 00"
Sunlit
Object was in full shadow at epoch
Visualization orbit readout
Latitude
Unknown
Longitude
Unknown
Altitude
Unknown
Speed
Unknown
Apparent Right ascension
Unknown
Apparent Declination
Unknown
Sunlit
N/A
Visualization observer readout
Local Sidereal Time
12:45:39
Azimuth
Unknown
Elevation
Unknown
Doppler factor
Unknown
Orbital elements
Apogee altitude
629.01 km
Perigee altitude
627.013 km
Semi-major axis
7,006.148 km
Eccentricity
0.00014
Inclination
97.9225°
RAAN
345.5427°
Arg. of periapsis
94.234°
True anomaly
265.88721°
Mean anomaly
265.9035°
Eccentric anomaly
265.89536°
Mean motion
3.70104 °/min
Orbital period
97.27 mins
BSTAR
0.00042647
Loading maneuver chart data...
Computing Atmospheric mass density...
Loading historical data...
Loading historical data...
Loading historical data...
Loading historical data...
Loading historical data...
Loading historical data...
Loading historical data...
Other satellites on launch #123 in the year 2024 (2024-07-01 UTC)

Documentation

Showing up to 5 results
|